When you browse on this site, cookies collect data to enhance your experience and personalize the content and advertising you see.
Visit our Privacy Policy to learn more. By continuing to use the site, you agree to this use of cookies and data.
  • Em Portugal
  • Lista de países
  • Para 7 dias
  • Temperatura da água
  • Mapa do tempo
  • Widgets de tempo
  • user-avatar
    Iniciar Sessão

    Previsão horária em Visimo-Utkinsk

    Hoje, 3 Junho, Quarta-feira

    Tempo Temperatura Precipitação Vento Pressão Humidade
    00:00 +6°C° 0 mm 0 m/s 738 mmHg 85%
    01:00 +5°C° 0 mm 0 m/s 738 mmHg 87%
    02:00 +5°C° 0 mm 0 m/s 738 mmHg 88%
    03:00 +5°C° 0 mm 0 m/s 738 mmHg 88%
    04:00 +5°C° 0 mm 1 m/s 738 mmHg 89%
    05:00 +7°C° 0 mm 1 m/s 738 mmHg 80%
    06:00 +10°C° 0 mm 1 m/s 738 mmHg 70%
    07:00 +12°C° 0 mm 1 m/s 738 mmHg 61%
    08:00 +13°C° 0 mm 2 m/s 738 mmHg 55%
    09:00 +14°C° 0 mm 2 m/s 738 mmHg 50%
    10:00 +15°C° 0 mm 2 m/s 738 mmHg 44%
    11:00 +16°C° 0 mm 2 m/s 738 mmHg 42%
    12:00 +16°C° 0 mm 3 m/s 738 mmHg 40%
    13:00 +17°C° 0 mm 3 m/s 738 mmHg 38%
    14:00 +17°C° 0 mm 2 m/s 738 mmHg 38%
    15:00 +17°C° 0 mm 2 m/s 738 mmHg 39%
    16:00 +17°C° 0 mm 2 m/s 738 mmHg 39%
    17:00 +16°C° 0 mm 2 m/s 738 mmHg 46%
    18:00 +15°C° 0 mm 1 m/s 738 mmHg 53%
    19:00 +15°C° 0 mm 1 m/s 737 mmHg 60%
    20:00 +12°C° 0 mm 1 m/s 738 mmHg 65%
    21:00 +10°C° 0 mm 1 m/s 738 mmHg 70%
    22:00 +7°C° 0 mm 0 m/s 738 mmHg 76%
    23:00 +6°C° 0 mm 0 m/s 739 mmHg 77%

    Amanhã, 4 Junho, Quinta-feira

    Tempo Temperatura Precipitação Vento Pressão Humidade
    00:00 +6°C° 0 mm 0 m/s 739 mmHg 78%
    01:00 +5°C° 0 mm 0 m/s 739 mmHg 79%
    02:00 +6°C° 0 mm 1 m/s 739 mmHg 78%
    03:00 +6°C° 0 mm 1 m/s 739 mmHg 78%
    04:00 +6°C° 0 mm 1 m/s 740 mmHg 77%
    05:00 +8°C° 0 mm 1 m/s 740 mmHg 70%
    06:00 +9°C° 0 mm 2 m/s 740 mmHg 62%
    07:00 +13°C° 0 mm 2 m/s 740 mmHg 54%
    08:00 +14°C° 0 mm 2 m/s 740 mmHg 50%
    09:00 +15°C° 0 mm 2 m/s 740 mmHg 45%
    10:00 +16°C° 0 mm 3 m/s 741 mmHg 41%
    11:00 +17°C° 0 mm 2 m/s 740 mmHg 39%
    12:00 +18°C° 0 mm 2 m/s 740 mmHg 36%
    13:00 +19°C° 0 mm 2 m/s 740 mmHg 34%
    14:00 +19°C° 0 mm 2 m/s 740 mmHg 35%
    15:00 +19°C° 0 mm 2 m/s 740 mmHg 35%
    16:00 +19°C° 0 mm 2 m/s 740 mmHg 36%
    17:00 +18°C° 0 mm 2 m/s 740 mmHg 43%
    18:00 +17°C° 0 mm 2 m/s 740 mmHg 50%
    19:00 +16°C° 0 mm 2 m/s 740 mmHg 57%
    20:00 +14°C° 0 mm 1 m/s 740 mmHg 63%
    21:00 +11°C° 0 mm 1 m/s 740 mmHg 68%
    22:00 +9°C° 0 mm 1 m/s 741 mmHg 74%
    23:00 +9°C° 0 mm 1 m/s 741 mmHg 74%

    Depois de amanhã, 5 Junho, Sexta-feira

    Tempo Temperatura Precipitação Vento Pressão Humidade
    00:00 +8°C° 0 mm 1 m/s 741 mmHg 74%
    01:00 +8°C° 0 mm 1 m/s 741 mmHg 74%
    02:00 +8°C° 0 mm 1 m/s 741 mmHg 77%
    03:00 +7°C° 0 mm 1 m/s 742 mmHg 79%
    04:00 +7°C° 0 mm 1 m/s 742 mmHg 82%
    05:00 +10°C° 0 mm 1 m/s 742 mmHg 74%
    06:00 +11°C° 0 mm 0 m/s 742 mmHg 66%
    07:00 +14°C° 0 mm 0 m/s 742 mmHg 58%
    08:00 +16°C° 0 mm 1 m/s 742 mmHg 52%
    09:00 +17°C° 0 mm 2 m/s 742 mmHg 46%
    10:00 +18°C° 0 mm 2 m/s 743 mmHg 40%
    11:00 +19°C° 0 mm 2 m/s 742 mmHg 39%
    12:00 +20°C° 0 mm 2 m/s 742 mmHg 37%
    13:00 +20°C° 0 mm 3 m/s 742 mmHg 36%
    14:00 +20°C° 0 mm 2 m/s 742 mmHg 37%
    15:00 +20°C° 0 mm 2 m/s 742 mmHg 37%
    16:00 +20°C° 0 mm 2 m/s 742 mmHg 38%
    17:00 +19°C° 0 mm 2 m/s 742 mmHg 44%
    18:00 +18°C° 0 mm 2 m/s 742 mmHg 51%
    19:00 +18°C° 0 mm 1 m/s 742 mmHg 58%
    20:00 +15°C° 0 mm 1 m/s 742 mmHg 63%
    21:00 +13°C° 0 mm 1 m/s 742 mmHg 67%
    22:00 +11°C° 0 mm 1 m/s 742 mmHg 71%
    23:00 +11°C° 0 mm 1 m/s 742 mmHg 75%

    6 Junho, Sábado

    Tempo Temperatura Precipitação Vento Pressão Humidade
    00:00 +10°C° 0 mm 1 m/s 743 mmHg 78%
    01:00 +9°C° 0 mm 1 m/s 743 mmHg 81%
    02:00 +9°C° 0 mm 1 m/s 743 mmHg 83%
    03:00 +9°C° 0 mm 1 m/s 743 mmHg 84%
    04:00 +9°C° 0 mm 1 m/s 743 mmHg 86%
    05:00 +11°C° 0 mm 1 m/s 743 mmHg 77%
    06:00 +14°C° 0 mm 1 m/s 743 mmHg 68%
    07:00 +16°C° 0 mm 1 m/s 743 mmHg 58%
    08:00 +18°C° 0 mm 1 m/s 744 mmHg 52%
    09:00 +19°C° 0 mm 2 m/s 744 mmHg 46%
    10:00 +20°C° 0 mm 2 m/s 744 mmHg 39%
    11:00 +21°C° 0 mm 2 m/s 744 mmHg 37%
    12:00 +23°C° 0 mm 2 m/s 743 mmHg 35%
    13:00 +24°C° 0 mm 2 m/s 743 mmHg 33%
    14:00 +24°C° 0 mm 2 m/s 743 mmHg 33%
    15:00 +24°C° 0 mm 2 m/s 743 mmHg 33%
    16:00 +24°C° 0 mm 1 m/s 743 mmHg 34%
    17:00 +23°C° 0 mm 1 m/s 743 mmHg 41%
    18:00 +22°C° 0 mm 1 m/s 742 mmHg 49%
    19:00 +21°C° 0 mm 1 m/s 742 mmHg 57%
    20:00 +18°C° 0 mm 1 m/s 742 mmHg 62%
    21:00 +15°C° 0 mm 1 m/s 742 mmHg 68%
    22:00 +13°C° 0 mm 1 m/s 743 mmHg 73%
    23:00 +12°C° 0 mm 1 m/s 743 mmHg 77%

    7 Junho, Domingo

    Tempo Temperatura Precipitação Vento Pressão Humidade
    00:00 +12°C° 0 mm 1 m/s 743 mmHg 82%
    01:00 +11°C° 0 mm 1 m/s 743 mmHg 86%
    02:00 +11°C° 0 mm 1 m/s 743 mmHg 87%
    03:00 +11°C° 0 mm 1 m/s 743 mmHg 87%
    04:00 +11°C° 0 mm 1 m/s 743 mmHg 87%
    05:00 +13°C° 0 mm 1 m/s 744 mmHg 78%
    06:00 +15°C° 0 mm 1 m/s 744 mmHg 69%
    07:00 +19°C° 0 mm 1 m/s 744 mmHg 60%
    08:00 +20°C° 0 mm 1 m/s 744 mmHg 54%
    09:00 +22°C° 0 mm 1 m/s 744 mmHg 49%
    10:00 +24°C° 0 mm 1 m/s 744 mmHg 43%
    11:00 +24°C° 0 mm 2 m/s 744 mmHg 40%
    12:00 +25°C° 0 mm 2 m/s 744 mmHg 38%
    13:00 +25°C° 0 mm 2 m/s 744 mmHg 35%
    14:00 +25°C° 0 mm 2 m/s 743 mmHg 36%
    15:00 +25°C° 0 mm 2 m/s 743 mmHg 36%
    16:00 +25°C° 0 mm 3 m/s 743 mmHg 37%
    17:00 +24°C° 0 mm 2 m/s 743 mmHg 44%
    18:00 +23°C° 0 mm 2 m/s 743 mmHg 52%
    19:00 +20°C° 0 mm 2 m/s 743 mmHg 60%
    20:00 +18°C° 0 mm 2 m/s 743 mmHg 66%
    21:00 +16°C° 0 mm 1 m/s 743 mmHg 73%
    22:00 +14°C° 0 mm 1 m/s 743 mmHg 79%
    23:00 +13°C° 0 mm 1 m/s 743 mmHg 81%

    8 Junho, Segunda-feira

    Tempo Temperatura Precipitação Vento Pressão Humidade
    00:00 +13°C° 0 mm 1 m/s 743 mmHg 82%
    01:00 +12°C° 0 mm 1 m/s 743 mmHg 84%
    02:00 +12°C° 0 mm 1 m/s 743 mmHg 85%
    03:00 +12°C° 0 mm 1 m/s 743 mmHg 87%
    04:00 +12°C° 0 mm 1 m/s 743 mmHg 88%
    05:00 +14°C° 0 mm 1 m/s 744 mmHg 81%
    06:00 +16°C° 0 mm 2 m/s 744 mmHg 73%
    07:00 +18°C° 0 mm 2 m/s 744 mmHg 65%
    08:00 +19°C° 0 mm 3 m/s 744 mmHg 60%
    09:00 +21°C° 0 mm 3 m/s 744 mmHg 55%
    10:00 +23°C° 0 mm 4 m/s 743 mmHg 50%
    11:00 +23°C° 0 mm 4 m/s 743 mmHg 48%
    12:00 +25°C° 0 mm 4 m/s 743 mmHg 46%
    13:00 +26°C° 0 mm 4 m/s 743 mmHg 44%
    14:00 +26°C° 0 mm 4 m/s 743 mmHg 46%
    15:00 +26°C° 0 mm 4 m/s 743 mmHg 47%
    16:00 +26°C° 0 mm 4 m/s 742 mmHg 49%
    17:00 +25°C° 0 mm 4 m/s 742 mmHg 55%
    18:00 +24°C° 0 mm 3 m/s 742 mmHg 60%
    19:00 +22°C° 0 mm 3 m/s 742 mmHg 66%
    20:00 +21°C° 0 mm 2 m/s 742 mmHg 72%
    21:00 +19°C° 0 mm 2 m/s 742 mmHg 79%
    22:00 +17°C° 0 mm 2 m/s 742 mmHg 85%
    23:00 +16°C° 0 mm 2 m/s 742 mmHg 87%
    Mostrar mais